Location: Goettingen
(51.5300°N, 9.9433°E)
Time: 13:02:16
(UTC+02:00)

ISS - Pass Details

Date: 02 July 2022
Orbit: 414 x 420 km, 51.6° (Epoch: 03 July)

Event Time Altitude Azimuth Distance (km) Brightness Sun altitude
Exits shadow 02:35:35 12° 140° (SE) 1,379 -1.5 -13.8°
Maximum altitude 02:35:44 12° 138° (SE) 1,378 -1.4 -13.8°
Drops below altitude 10° 02:37:05 10° 114° (ESE) 1,496 -1.0 -13.7°
Sets 02:40:14 0° 82° (E) 2,367 0.4 -13.6°
